CAPE
0 0 0 0 0 0 0 0 0 0 0 0 0 0 0 0 0 0 0 0 0 0 0 0 0 0 0 0 0 0 0 0 0 0 0 0 0 0 0 0 0 0 0 0
0 0 0 0 0 0 0 0 0 0 0 0 0 0 0 0 0 0 0 0 0 0 0 0 0 0 0 0 0 0 0 0 0 0 0 0 0 0 0 0 0 0 0 0
0 0 0 0 0 0 0 0 0 0 0 0 0 0 0 0 0 0 0 0 0 0 0 0 0 0 0 0 0 0 0 0 0 0 0 0 0 0 0 0 0 0 0 0
0 0 0 0 0 0 0 0 0 0 0 0 0 0 0 0 0 0 0 0 0 0 0 0 0 0 0 0 0 0 0 0 0 0 0 0 0 0 0 0 0 0 0 0
0 0 0 0 0 0 0 0 0 0 0 0 0 0 0 0 0 0 0 0 0 0 0 0 0 0 0 0 0 0 0 0 0 0 0 0 0 0 0 0 0 0 0 0
0 0 0 0 0 0 0 0 0 0 0 0 0 0 0 0 0 0 0 0 0 0 0 0 0 0 0 0 0 0 0 0 0 0 0 0 0 0 0 0 0 0 0 0
0 0 0 0 0 0 0 0 0 0 0 0 0 0 0 0 0 0 0 0 0 0 0 0 0 0 0 0 0 0 0 0 0 0 0 0 0 0 0 0 0 0 0 0
0 0 0 0 0 0 0 0 0 0 0 0 0 0 0 0 0 0 0 0 0 0 0 0 0 0 0 0 0 0 0 0 0 0 0 0 0 0 0 0 0 0 0 0
0 0 0 0 0 0 0 0 0 0 0 0 0 0 0 0 0 0 0 0 0 0 0 0 0 0 0 0 0 0 0 0 0 0 0 0 0 0 0 0 0 0 0 0
0 0 0 0 0 0 0 0 0 0 0 0 0 0 0 0 0 0 0 0 0 0 0 0 0 0 0 0 0 0 0 1 0 0 0 0 0 0 0 0 0 0 0 0
1 0 0 0 0 0 0 0 0 0 0 0 0 0 0 0 0 0 0 0 0 0 0 0 0 0 0 0 0 0 0 0 0 0 0 0 0 0 0 0 0 0 0 0
1 2 2 0 5 4 0 0 0 0 0 0 0 0 0 0 0 0 0 0 0 0 0 0 0 0 0 0 0 0 0 0 0 0 0 0 0 0 0 0 0 0 0 0
2 1 0 1 2 2 2 0 0 0 0 0 0 0 0 0 0 0 0 0 0 0 0 0 0 0 0 0 0 0 0 0 0 0 0 0 0 0 0 0 0 0 0 0
0 1 2 2 0 0 0 1 0 0 0 1 0 0 0 0 0 0 0 0 0 0 0 0 0 2 0 0 0 0 0 0 0 0 0 0 0 0 0 0 0 0 0 0
1 1 1 1 1 0 0 0 1 0 1 1 0 0 0 0 0 0 0 0 0 0 1 0 0 1 0 0 0 0 0 0 0 0 0 0 0 0 0 0 0 0 0 0
0 0 0 1 0 0 0 2 1 0 0 1 0 0 0 0 0 0 0 0 2 1 0 3 4 1 0 0 0 0 0 0 0 0 0 0 0 0 0 0 0 0 0 0
0 0 0 0 0 8 0 0 1 1 1 0 0 1 0 0 0 0 0 0 3 4 9 6 12 7 4 2 1 0 0 0 2 0 0 0 0 0 0 0 0 0 0 0
0 0 0 1 0 1 4 0 0 0 0 1 0 0 0 0 0 0 0 1 0 0 2 3 3 7 19 12 0 0 0 0 1 1 1 0 0 0 0 1 2 0 0 0
0 0 0 0 0 1 6 1 2 3 1 1 1 0 0 0 0 0 0 0 0 0 3 5 7 4 4 0 0 1 2 0 0 0 0 0 0 0 0 0 0 0 0 0
0 0 0 0 2 0 0 3 4 5 2 0 0 1 0 0 0 0 0 15 0 4 2 8 4 1 0 0 0 0 0 0 0 0 0 0 0 0 0 0 0 0 0 0
0 0 0 0 0 0 2 2 1 0 0 1 0 0 0 0 0 0 5 2 12 11 0 0 12 0 0 0 0 0 0 0 0 0 0 0 0 0 0 0 0 0 0 0
0 2 1 1 1 1 0 0 0 0 0 0 0 1 0 0 0 2 1 17 5 1 0 3 0 0 0 0 0 0 0 0 0 0 0 0 1 0 1 0 0 0 0 0
0 0 0 0 0 0 0 0 0 0 0 2 0 0 0 0 2 0 0 0 2 0 0 5 3 0 0 0 0 0 0 0 0 0 2 5 1 4 2 0 0 0 0 0
0 0 0 0 0 0 0 0 0 0 0 0 0 0 0 0 0 0 0 0 0 0 0 0 1 0 0 0 0 0 0 0 0 0 0 0 0 0 0 0 0 0 0 0
0 0 0 0 0 0 0 0 0 0 0 0 0 0 0 0 0 0 0 1 0 0 0 0 0 0 0 0 0 0 0 0 0 0 0 0 0 0 0 0 0 0 0 0
0 0 0 0 0 0 0 0 0 0 0 0 0 0 0 0 0 0 0 0 0 0 0 0 0 0 0 0 0 0 0 0 0 0 0 0 0 0 0 0 0 0 0 0
0 0 0 0 0 0 0 0 0 0 0 0 0 0 4 0 0 0 0 0 1 2 0 0 0 0 0 0 0 0 0 0 0 0 0 0 0 0 0 0 0 0 0 0
CIN
-0 -0 -0 -0 -0 -0 -0 -0 -0 -0 -0 -0 -0 -0 -0 -0 -0 -0 -0 -0 -0 -0 -0 -0 -0 -0 -0 -0 -0 -0 -0 -0 -0 -0 -0 -0 -0 -0 -0 -0 -0 -0 -0 -0
-0 -0 -0 -0 -0 -0 -0 -0 -0 -0 -0 -0 -0 -0 -0 -0 -0 -0 -0 -0 -0 -0 -0 -0 -0 -0 -0 -0 -0 -0 -0 -0 -0 -0 -0 -0 -0 -0 -0 -0 -0 -0 -0 -0
-0 -0 -0 -0 -0 -0 -0 -0 -0 -0 -0 -0 -0 -0 -0 -0 -0 -0 -0 -0 -0 -0 -0 -0 -0 -0 -0 -0 -0 -0 -0 -0 -0 -0 -0 -0 -0 -0 -0 -0 -0 -0 -0 -0
-0 -0 -0 -0 -0 -0 -0 -0 -0 -0 -0 -0 -0 -0 -0 -0 -0 -0 -0 -0 -0 -0 -0 -0 -0 -0 -0 -0 -0 -0 -0 -0 -0 -0 -0 -0 -0 -0 -0 -0 -0 -0 -0 -0
-0 -0 -0 -0 -0 -0 -0 -0 -0 -0 -0 -0 -0 -0 -0 -0 -0 -0 -0 -0 -0 -0 -0 -0 -0 -0 -0 -0 -0 -0 -0 -0 -0 -0 -0 -0 -0 -0 -0 -0 -0 -0 -0 -0
-0 -0 -0 -0 -0 -0 -0 -0 -0 -0 -0 -0 -0 -0 -0 -0 -0 -0 -0 -0 -0 -0 -0 -0 -0 -0 -0 -0 -0 -0 -0 -0 -0 -0 -0 -0 -0 -0 -0 -0 -0 -0 -0 -0
-0 -0 -0 -0 -0 -0 -0 -0 -0 -0 -0 -0 -0 -0 -0 -0 -0 -0 -0 -0 -0 -0 -0 -0 -0 -0 -0 -0 -0 -0 -0 -0 -0 -0 -0 -0 -0 -0 -0 -0 -0 -0 -0 -0
-0 -0 -0 -0 -0 -0 -0 -0 -0 -0 -0 -0 -0 -0 -0 -0 -0 -0 -0 -0 -0 -0 -0 -0 -0 -0 -0 -0 -0 -0 -0 -0 -0 -0 -0 -0 -0 -0 -0 -0 -0 -0 -0 -0
-0 -0 -0 -0 -0 -0 -0 -0 -0 -0 -0 -0 -0 -0 -0 -0 -0 -0 -0 -0 -0 -0 -0 -0 -0 -0 -0 -0 -0 -0 -0 -0 -0 -0 -0 -0 -0 -0 -0 -0 -0 -0 -0 -0
-0 -0 -0 -0 -0 -0 -0 -0 -0 -0 -0 -0 -0 -0 -0 -0 -0 -0 -0 -0 -0 -0 -0 -0 -0 -0 -0 -0 -0 -0 -0 -0 -0 -0 -0 -0 -0 -0 -0 -0 -0 -0 -0 -0
-0 -0 -0 -0 -0 -0 -0 -0 -0 -0 -0 -0 -0 -0 -0 -0 -0 -0 -0 -0 -0 -0 -0 -0 -0 -0 -0 -0 -0 -0 -0 -0 -0 -0 -0 -0 -0 -0 -0 -0 -0 -0 -0 -0
-0 -0 -0 -0 -17 -24 -0 -0 -0 -0 -0 -0 -0 -0 -0 -0 -0 -0 -0 -0 -0 -0 -0 -0 -0 -0 -0 -0 -0 -0 -0 -0 -0 -0 -0 -0 -0 -0 -0 -0 -0 -0 -0 -0
-0 -0 -0 -0 -0 -0 -5 -22 -0 -0 -0 -0 -0 -0 -0 -0 -0 -0 -0 -0 -0 -0 -0 -0 -0 -0 -0 -0 -0 -0 -0 -0 -0 -0 -0 -0 -0 -0 -0 -0 -0 -0 -0 -0
-0 -0 -0 -0 -0 -0 -0 -0 -0 -0 -8 -0 -0 -0 -0 -0 -0 -0 -0 -0 -0 -0 -0 -0 -1 -0 -0 -0 -0 -0 -0 -0 -0 -0 -0 -0 -0 -0 -0 -0 -0 -0 -0 -0
-0 -0 -0 -0 -0 -0 -0 -0 -0 -0 -0 -0 -0 -0 -0 -0 -0 -0 -0 -0 -0 -0 -0 -0 -0 -0 -0 -0 -0 -0 -0 -0 -0 -0 -0 -0 -0 -0 -0 -0 -0 -0 -0 -0
-0 -0 -0 -0 -0 -0 -0 -0 -0 -0 -0 -0 -0 -0 -0 -0 -0 -0 -0 -0 -0 -0 -0 -0 -0 -1 -0 -0 -0 -0 -0 -0 -0 -0 -0 -0 -0 -0 -0 -0 -0 -0 -0 -0
-0 -0 -0 -0 -0 -0 -0 -0 -0 -2 -0 -0 -0 -0 -0 -0 -0 -0 -0 -0 -0 -0 -0 -0 -0 -0 -8 -18 -0 -0 -0 -4 -2 -0 -0 -0 -0 -0 -0 -0 -0 -0 -0 -0
-0 -0 -0 -0 -0 -0 -0 -0 -1 -0 -0 -0 -0 -0 -0 -0 -0 -0 -0 -0 -0 -0 -2 -0 -1 -0 -0 -0 -0 -0 -0 -0 -0 -0 -0 -0 -0 -0 -0 -0 -0 -0 -0 -0
-0 -0 -0 -0 -2 -0 -0 -10 -8 -6 -0 -0 -1 -0 -0 -0 -0 -0 -0 -0 -2 -5 -0 -0 -0 -1 -2 -0 -0 -0 -0 -0 -0 -0 -0 -0 -0 -0 -0 -0 -0 -0 -0 -0
-0 -0 -0 -0 -2 -0 -0 -1 -1 -0 -0 -0 -0 -0 -0 -0 -0 -3 -0 -0 -0 -2 -8 -11 -3 -8 -0 -0 -0 -0 -0 -0 -0 -0 -0 -0 -0 -0 -0 -0 -0 -0 -0 -0
-0 -0 -0 -0 -0 -0 -1 -0 -0 -0 -0 -0 -0 -0 -0 -0 -0 -0 -3 -8 -14 -5 -0 -0 -3 -0 -0 -0 -0 -0 -0 -0 -0 -0 -0 -0 -0 -0 -0 -0 -0 -0 -0 -0
-0 -3 -1 -5 -1 -2 -0 -0 -0 -0 -0 -0 -0 -0 -0 -0 -0 -1 -15 -5 -21 -18 -0 -9 -0 -0 -0 -0 -0 -0 -0 -0 -0 -0 -4 -10 -15 -0 -47 -0 -0 -0 -0 -0
-0 -0 -0 -1 -0 -0 -0 -0 -0 -0 -0 -4 -0 -0 -0 -0 -0 -0 -0 -7 -9 -0 -0 -10 -21 -0 -0 -23 -0 -0 -0 -0 -0 -0 -27 -23 -6 -44 -41 -0 -0 -0 -0 -0
-0 -0 -0 -0 -0 -0 -0 -0 -0 -0 -0 -0 -0 -0 -0 -0 -0 -0 -21 -0 -0 -0 -0 -0 -51 -0 -0 -0 -0 -0 -0 -0 -0 -0 -0 -0 -0 -0 -0 -0 -0 -0 -0 -0
-0 -0 -0 -0 -0 -0 -0 -0 -0 -0 -0 -0 -0 -0 -0 -0 -0 -0 -0 -8 -0 -0 -8 -10 -0 -0 -0 -0 -0 -0 -0 -0 -0 -0 -0 -0 -0 -0 -0 -0 -0 -0 -0 -0
-0 -0 -0 -0 -0 -0 -0 -0 -0 -0 -0 -0 -0 -0 -0 -0 -0 -0 -0 -0 -0 -2 -0 -0 -0 -0 -0 -0 -0 -0 -0 -0 -0 -0 -0 -0 -0 -0 -0 -0 -0 -0 -0 -0
-0 -0 -0 -0 -0 -0 -0 -0 -0 -0 -0 -0 -0 -6 -18 -0 -0 -0 -0 -0 -15 -27 -0 -0 -0 -0 -0 -0 -0 -0 -0 -0 -0 -0 -0 -0 -0 -0 -0 -0 -0 -0 -0 -0
Wind_Speed
21 20 18 17 5 5 19 15 9 6 8 6 7 9 12 14 16 15 14 15 15 15 11 11 11 11 13 12 14 17 17 18 20 19 17 17 17 19 16 21 22 20 23 24
25 25 24 23 20 23 20 21 9 19 5 8 9 5 16 11 11 14 16 17 18 17 16 18 16 16 15 12 14 16 14 16 19 18 18 17 16 15 15 17 20 19 21 22
26 27 28 29 27 25 20 20 20 22 22 21 21 21 21 20 18 17 17 18 18 18 17 16 16 16 17 14 15 15 15 17 16 20 22 20 20 17 13 14 21 22 18 22
28 29 30 31 30 25 19 22 20 20 24 25 24 23 22 23 23 20 17 18 13 16 17 19 18 16 15 15 15 16 16 20 19 20 21 20 19 18 15 15 16 21 23 18
28 30 31 32 32 24 21 23 23 21 23 22 23 25 25 26 25 21 22 19 20 13 15 16 18 15 17 19 14 15 18 22 22 24 22 21 20 17 17 18 18 21 21 24
28 29 30 31 32 25 21 21 20 22 23 24 25 25 24 26 24 22 22 23 23 23 21 20 21 18 20 18 17 14 19 23 27 28 27 29 26 21 16 19 19 17 19 19
27 28 29 30 30 26 21 22 22 24 26 25 25 25 25 25 24 26 24 20 24 23 19 19 21 22 23 21 20 18 22 23 24 29 34 31 30 24 22 18 22 17 21 21
28 28 28 28 28 27 23 22 23 26 29 27 28 28 28 28 26 26 25 22 22 17 21 28 29 28 29 26 25 22 21 23 27 29 32 40 41 28 26 29 35 21 22 23
28 28 28 28 27 26 24 25 24 25 31 32 31 32 29 31 30 29 25 23 20 20 24 26 32 32 31 29 26 22 20 23 25 29 35 43 31 26 24 27 42 27 23 24
29 29 30 30 28 26 25 25 24 27 34 31 29 33 33 27 28 30 28 24 22 20 26 31 34 37 29 35 33 29 27 28 30 33 39 39 32 28 24 38 46 29 22 22
31 31 31 31 28 26 27 28 25 28 33 34 29 28 28 28 28 32 27 28 26 25 30 33 34 37 34 38 34 33 33 32 35 34 40 50 26 23 30 32 32 28 25 24
30 31 31 31 31 28 26 29 24 24 30 32 27 28 28 26 25 28 26 29 27 26 29 30 31 36 34 37 44 29 40 33 39 34 40 32 26 30 29 34 34 31 30 30
27 28 28 29 29 29 27 26 24 26 33 36 31 28 24 22 21 19 31 29 27 28 27 32 34 41 35 43 44 42 37 34 42 43 41 39 39 36 36 37 36 32 32 33
27 28 28 29 28 29 28 27 24 25 31 38 37 26 25 19 19 17 17 25 24 26 26 33 37 41 33 42 43 47 42 38 44 50 46 46 48 45 45 41 38 36 35 33
28 28 28 28 28 29 28 26 24 23 28 37 38 36 35 33 24 23 23 26 28 29 33 35 39 35 36 40 44 51 40 45 47 52 48 48 51 47 41 38 35 33 33 35
29 29 28 28 28 29 25 26 20 21 24 31 39 30 29 29 28 25 23 23 25 27 32 36 35 32 35 43 51 46 41 39 39 46 45 46 45 41 38 39 36 35 34 34
28 28 28 28 28 25 24 26 25 27 23 26 35 33 26 24 23 22 22 22 24 27 31 35 37 38 36 42 53 49 46 48 48 47 44 46 41 40 36 33 32 31 30 29
31 31 30 29 29 25 24 21 23 21 22 22 32 33 31 27 33 33 26 27 25 27 31 33 35 37 36 47 47 46 45 43 40 37 33 33 32 31 30 30 30 30 30 29
32 33 30 25 23 23 22 25 26 21 20 26 27 34 37 25 27 29 31 30 37 30 35 35 33 37 37 35 35 34 32 31 31 30 30 30 31 32 32 32 33 33 32 32
30 26 25 26 21 27 28 22 21 19 19 22 30 26 33 30 30 29 30 27 31 36 32 28 30 31 19 24 26 27 27 25 26 28 30 30 29 29 29 30 30 31 33 35
24 25 25 25 27 24 21 23 22 20 24 20 21 20 25 22 28 30 25 30 30 36 32 33 34 31 26 25 26 25 24 23 23 23 25 26 28 29 32 33 33 35 37 37
24 26 26 23 22 20 22 23 22 21 23 20 20 22 22 25 24 26 25 28 27 30 29 29 29 24 27 26 26 25 22 22 23 23 26 29 31 31 35 37 38 38 39 40
21 21 22 21 20 23 22 23 22 22 22 21 25 28 25 24 22 26 26 28 29 29 29 30 29 23 26 28 27 29 28 28 30 32 34 36 37 36 39 42 43 43 43 44
20 21 24 21 21 19 17 17 22 22 24 27 27 28 25 23 24 24 27 27 26 29 33 36 27 26 29 32 32 32 35 37 38 40 41 42 41 40 43 45 46 46 46 47
18 17 21 19 18 19 18 20 25 24 24 25 27 25 23 25 26 22 24 25 27 27 32 30 23 31 33 34 37 39 41 43 44 45 46 46 46 46 47 47 48 47 45 46
17 18 19 18 23 25 24 24 25 22 21 23 22 24 26 24 21 22 23 26 31 33 29 32 30 36 35 36 40 42 43 44 46 46 47 47 48 48 48 49 48 47 44 42
17 18 16 19 24 24 25 23 23 20 22 23 22 23 23 21 23 25 22 26 34 31 39 36 37 41 42 43 45 45 43 42 42 42 43 43 43 42 42 44 45 41 40 40
Wind_Direction
337 335 332 329 294 106 83 112 169 172 153 185 205 167 170 164 158 185 202 218 246 162 68 59 29 11 347 350 339 326 328 323 318 321 329 327 325 323 328 319 323 328 329 331
339 338 334 331 323 344 60 4 264 68 197 276 279 292 94 240 154 231 262 275 289 321 335 322 331 334 341 353 340 334 342 334 328 331 332 330 329 330 327 327 328 321 324 326
334 336 337 336 332 3 40 27 326 348 1 348 345 352 351 1 1 359 351 340 339 332 339 337 340 337 332 337 333 334 337 329 325 322 324 328 322 323 318 316 316 317 307 312
335 335 335 335 336 352 17 357 356 4 323 332 335 333 339 339 337 339 347 341 351 342 339 329 330 333 336 334 333 332 331 321 321 317 317 316 313 311 307 290 292 303 312 300
331 332 334 335 334 345 356 338 338 344 345 350 340 335 330 324 327 335 329 329 328 334 332 329 329 332 328 327 332 327 325 322 322 319 319 313 307 301 291 277 276 276 278 268
328 331 334 335 336 341 343 343 344 334 331 332 331 331 333 329 333 333 327 321 319 315 315 316 318 321 320 320 319 316 318 317 318 315 320 318 311 305 285 301 301 279 292 298
325 327 330 335 339 344 341 336 333 327 321 323 324 326 327 327 328 322 325 324 313 320 331 330 319 313 311 309 307 309 309 311 314 312 313 306 316 321 320 301 305 287 296 301
325 327 328 331 334 338 336 335 328 318 314 315 315 316 316 318 319 318 316 316 316 326 320 310 309 309 307 305 301 298 303 303 308 309 307 306 306 312 314 308 307 294 289 298
317 320 323 325 328 331 329 328 328 321 309 308 312 311 313 311 312 312 315 318 320 315 310 308 302 302 306 306 309 310 300 301 297 305 305 303 316 322 324 320 304 314 298 298
310 313 316 319 321 323 321 319 324 316 305 308 310 306 308 311 311 307 311 313 310 311 303 298 298 298 302 298 299 301 301 296 285 291 298 301 308 313 317 306 309 320 312 306
305 307 310 313 316 318 316 314 317 313 306 304 305 307 305 306 307 303 310 309 306 302 295 297 298 297 297 296 296 297 294 295 295 295 295 298 312 314 303 312 318 315 311 306
311 310 309 309 310 309 312 308 314 316 306 305 311 304 302 298 299 302 301 299 305 301 299 298 301 297 298 297 295 299 292 289 296 290 296 307 309 304 306 311 308 307 303 303
317 317 317 316 314 314 310 308 311 313 307 307 307 309 312 307 297 292 294 297 294 294 296 297 296 292 297 292 293 295 297 297 293 297 297 295 297 299 300 302 298 298 298 299
319 318 318 317 317 316 315 309 312 310 307 301 304 314 309 327 320 301 282 300 309 304 298 291 290 290 295 292 293 292 296 299 297 293 296 300 297 300 300 298 295 293 292 293
318 321 323 322 320 317 314 311 311 311 303 299 300 304 304 307 305 294 294 292 292 293 293 290 291 294 294 293 294 290 296 294 293 294 300 300 300 304 304 300 298 297 296 295
316 318 319 318 319 320 319 309 319 326 316 304 300 310 310 310 310 305 299 294 291 290 294 293 293 290 295 293 290 297 302 300 296 296 300 300 302 305 306 303 302 302 300 301
319 318 318 318 319 318 310 307 314 314 320 308 304 305 317 320 323 322 314 305 301 295 294 292 293 294 297 294 291 299 300 301 301 302 302 298 299 302 307 308 309 310 310 308
314 315 313 312 312 312 310 314 318 318 310 308 301 301 306 318 310 309 314 308 307 301 299 299 299 302 297 295 300 303 306 307 312 312 314 313 315 315 314 314 315 313 311 311
316 315 314 316 314 310 313 313 310 310 305 304 303 300 302 320 314 312 310 307 302 305 298 299 303 301 299 311 320 322 323 319 319 324 324 322 321 320 318 316 314 311 311 312
318 322 318 309 318 316 315 318 313 310 305 304 301 307 300 311 313 313 314 312 307 305 308 312 302 301 318 332 333 336 331 335 332 325 325 327 326 327 325 322 319 315 315 313
320 318 313 317 318 317 315 310 307 310 306 313 314 315 313 323 313 313 317 312 311 304 309 310 305 302 315 325 327 330 332 328 330 330 327 327 325 322 324 323 319 314 316 313
317 315 316 320 318 314 309 307 310 307 309 321 320 327 324 322 324 318 318 313 314 310 323 314 311 315 321 323 325 327 328 328 326 326 322 320 321 317 317 317 315 315 313 311
325 321 316 316 315 305 305 304 309 311 319 320 323 319 323 325 326 318 318 313 308 317 311 309 313 320 322 323 321 322 322 321 319 319 314 314 316 315 310 310 310 311 311 310
319 315 309 311 309 308 311 315 316 317 319 318 321 319 321 324 321 320 313 314 317 311 309 310 321 325 325 322 320 317 316 315 314 312 309 311 313 313 309 308 309 310 312 311
318 323 311 311 315 316 318 319 321 324 325 326 324 321 321 319 317 322 319 316 313 315 313 319 325 328 326 323 321 317 312 310 309 308 308 308 309 309 308 308 309 310 312 311
323 316 313 318 316 315 318 320 320 328 330 331 329 323 320 319 319 319 315 315 313 317 323 323 324 323 325 323 321 319 317 314 311 310 308 307 307 307 307 308 309 310 311 312
324 322 325 318 316 317 318 323 325 333 328 325 328 323 321 329 321 319 321 315 319 320 321 322 321 318 317 319 318 317 316 315 316 315 315 314 314 315 315 314 312 311 312 313